"Time","Value","Approval","myLocation"
"2023-05-11 00:00",20.5752023556671,"Approved","OW453"
"2023-05-11 01:00",20.5762006178799,"Approved","OW453"
"2023-05-11 02:00",20.5771988800927,"Approved","OW453"
"2023-05-11 03:00",20.5801971423055,"Approved","OW453"
"2023-05-11 04:00",20.5821954045182,"Approved","OW453"
"2023-05-11 05:00",20.581193666731,"Approved","OW453"
"2023-05-11 06:00",20.5811919289438,"Approved","OW453"
"2023-05-11 07:00",20.5821901911566,"Approved","OW453"
"2023-05-11 08:00",20.5811884533694,"Approved","OW453"
"2023-05-11 09:00",20.5831867155822,"Approved","OW453"
"2023-05-11 10:00",20.5851849777949,"Approved","OW453"
"2023-05-11 11:00",20.5831832400077,"Approved","OW453"
"2023-05-11 12:00",20.5861815022205,"Approved","OW453"
"2023-05-11 13:00",20.5861797644333,"Approved","OW453"
"2023-05-11 14:00",20.5871780266461,"Approved","OW453"
"2023-05-11 15:00",20.5891762888589,"Approved","OW453"
"2023-05-11 16:00",20.5881745510716,"Approved","OW453"
"2023-05-11 17:00",20.5881728132844,"Approved","OW453"
"2023-05-11 18:00",20.5881710754972,"Approved","OW453"
"2023-05-11 19:00",20.58616933771,"Approved","OW453"
"2023-05-11 20:00",20.5881675999228,"Approved","OW453"
"2023-05-11 21:00",20.5881658621355,"Approved","OW453"
"2023-05-11 22:00",20.5881641243483,"Approved","OW453"
"2023-05-11 23:00",20.5871623865611,"Approved","OW453"
"2023-05-12 00:00",20.5891606487739,"Approved","OW453"
"2023-05-12 01:00",20.5901589109867,"Approved","OW453"
"2023-05-12 02:00",20.5891571731995,"Approved","OW453"
"2023-05-12 03:00",20.5911554354122,"Approved","OW453"
"2023-05-12 04:00",20.592153697625,"Approved","OW453"
"2023-05-12 05:00",20.5941519598378,"Approved","OW453"
"2023-05-12 06:00",20.5941502220506,"Approved","OW453"
"2023-05-12 07:00",20.5951484842634,"Approved","OW453"
"2023-05-12 08:00",20.5961467464762,"Approved","OW453"
"2023-05-12 09:00",20.5971450086889,"Approved","OW453"
"2023-05-12 10:00",20.5971432709017,"Approved","OW453"
"2023-05-12 11:00",20.5961415331145,"Approved","OW453"
"2023-05-12 12:00",20.5961397953273,"Approved","OW453"
"2023-05-12 13:00",20.5981380575401,"Approved","OW453"
"2023-05-12 14:00",20.5991363197528,"Approved","OW453"
"2023-05-12 15:00",20.6011345819656,"Approved","OW453"
"2023-05-12 16:00",20.6011328441784,"Approved","OW453"
"2023-05-12 17:00",20.6001311063912,"Approved","OW453"
"2023-05-12 18:00",20.601129368604,"Approved","OW453"
"2023-05-12 19:00",20.6001276308168,"Approved","OW453"
"2023-05-12 20:00",20.6001258930295,"Approved","OW453"
"2023-05-12 21:00",20.6011241552423,"Approved","OW453"
"2023-05-12 22:00",20.6011224174551,"Approved","OW453"
"2023-05-12 23:00",20.6001206796679,"Approved","OW453"
"2023-05-13 00:00",20.6011189418807,"Approved","OW453"
"2023-05-13 01:00",20.6021172040935,"Approved","OW453"
"2023-05-13 02:00",20.6021154663062,"Approved","OW453"
"2023-05-13 03:00",20.604113728519,"Approved","OW453"
"2023-05-13 04:00",20.6051119907318,"Approved","OW453"
"2023-05-13 05:00",20.6071102529446,"Approved","OW453"
"2023-05-13 06:00",20.6061085151574,"Approved","OW453"
"2023-05-13 07:00",20.6061067773701,"Approved","OW453"
"2023-05-13 08:00",20.6071050395829,"Approved","OW453"
"2023-05-13 09:00",20.6071033017957,"Approved","OW453"
"2023-05-13 10:00",20.6081015640085,"Approved","OW453"
"2023-05-13 11:00",20.6090998262213,"Approved","OW453"
"2023-05-13 12:00",20.6100980884341,"Approved","OW453"
"2023-05-13 13:00",20.6090963506468,"Approved","OW453"
"2023-05-13 14:00",20.6120946128596,"Approved","OW453"
"2023-05-13 15:00",20.6120928750724,"Approved","OW453"
"2023-05-13 16:00",20.6120911372852,"Approved","OW453"
"2023-05-13 17:00",20.610089399498,"Approved","OW453"
"2023-05-13 18:00",20.6100876617108,"Approved","OW453"
"2023-05-13 19:00",20.6110859239235,"Approved","OW453"
"2023-05-13 20:00",20.6110841861363,"Approved","OW453"
"2023-05-13 21:00",20.6090824483491,"Approved","OW453"
"2023-05-13 22:00",20.6090807105619,"Approved","OW453"
"2023-05-13 23:00",20.6080789727747,"Approved","OW453"
"2023-05-14 00:00",20.6080772349875,"Approved","OW453"
"2023-05-14 01:00",20.6090754972002,"Approved","OW453"
"2023-05-14 02:00",20.610073759413,"Approved","OW453"
"2023-05-14 03:00",20.6120720216258,"Approved","OW453"
"2023-05-14 04:00",20.6130702838386,"Approved","OW453"
"2023-05-14 05:00",20.6150685460514,"Approved","OW453"
"2023-05-14 06:00",20.6170668082641,"Approved","OW453"
"2023-05-14 07:00",20.6150650704769,"Approved","OW453"
"2023-05-14 08:00",20.6150633326897,"Approved","OW453"
"2023-05-14 09:00",20.6150615949025,"Approved","OW453"
"2023-05-14 10:00",20.6160598571153,"Approved","OW453"
"2023-05-14 11:00",20.6170581193281,"Approved","OW453"
"2023-05-14 12:00",20.6170563815408,"Approved","OW453"
"2023-05-14 13:00",20.6160546437536,"Approved","OW453"
"2023-05-14 14:00",20.6170529059664,"Approved","OW453"
"2023-05-14 15:00",20.6180511681792,"Approved","OW453"
"2023-05-14 16:00",20.618049430392,"Approved","OW453"
"2023-05-14 17:00",20.6160476926048,"Approved","OW453"
"2023-05-14 18:00",20.6160459548175,"Approved","OW453"
"2023-05-14 19:00",20.6170442170303,"Approved","OW453"
"2023-05-14 20:00",20.6160424792431,"Approved","OW453"
"2023-05-14 21:00",20.6160407414559,"Approved","OW453"
"2023-05-14 22:00",20.6180390036687,"Approved","OW453"
"2023-05-14 23:00",20.6160372658814,"Approved","OW453"
"2023-05-15 00:00",20.6180355280942,"Approved","OW453"
"2023-05-15 01:00",20.618033790307,"Approved","OW453"
"2023-05-15 02:00",20.6200320525198,"Approved","OW453"
"2023-05-15 03:00",20.6210303147326,"Approved","OW453"
"2023-05-15 04:00",20.6240285769454,"Approved","OW453"
"2023-05-15 05:00",20.6240268391581,"Approved","OW453"
"2023-05-15 06:00",20.6230251013709,"Approved","OW453"
"2023-05-15 07:00",20.6240233635837,"Approved","OW453"
"2023-05-15 08:00",20.6230216257965,"Approved","OW453"
"2023-05-15 09:00",20.6240198880093,"Approved","OW453"
"2023-05-15 10:00",20.623018150222,"Approved","OW453"
"2023-05-15 11:00",20.6240164124348,"Approved","OW453"
"2023-05-15 12:00",20.6250146746476,"Approved","OW453"
"2023-05-15 13:00",20.6280129368604,"Approved","OW453"
"2023-05-15 14:00",20.6270111990732,"Approved","OW453"
"2023-05-15 15:00",20.626009461286,"Approved","OW453"
"2023-05-15 16:00",20.6270077234987,"Approved","OW453"
"2023-05-15 17:00",20.6270059857115,"Approved","OW453"
"2023-05-15 18:00",20.6270042479243,"Approved","OW453"
"2023-05-15 19:00",20.6270025101371,"Approved","OW453"
"2023-05-15 20:00",20.6280007723499,"Approved","OW453"
"2023-05-15 21:00",20.6279990345627,"Approved","OW453"
"2023-05-15 22:00",20.6279972967754,"Approved","OW453"
"2023-05-15 23:00",20.6279955589882,"Approved","OW453"
"2023-05-16 00:00",20.628993821201,"Approved","OW453"
"2023-05-16 01:00",20.6299920834138,"Approved","OW453"
"2023-05-16 02:00",20.6309903456266,"Approved","OW453"
"2023-05-16 03:00",20.6329886078394,"Approved","OW453"
"2023-05-16 04:00",20.6369868700521,"Approved","OW453"
"2023-05-16 05:00",20.6359851322649,"Approved","OW453"
"2023-05-16 06:00",20.6349833944777,"Approved","OW453"
"2023-05-16 07:00",20.6409816566905,"Approved","OW453"
"2023-05-16 08:00",20.6449799189033,"Approved","OW453"
"2023-05-16 09:00",20.640978181116,"Approved","OW453"
"2023-05-16 10:00",20.6409764433288,"Approved","OW453"
"2023-05-16 11:00",20.6389747055416,"Approved","OW453"
"2023-05-16 12:00",20.6399729677544,"Approved","OW453"
"2023-05-16 13:00",20.6429712299672,"Approved","OW453"
"2023-05-16 14:00",20.64396949218,"Approved","OW453"
"2023-05-16 15:00",20.6449677543927,"Approved","OW453"
"2023-05-16 16:00",20.6459660166055,"Approved","OW453"
"2023-05-16 17:00",20.6439642788183,"Approved","OW453"
"2023-05-16 18:00",20.6459625410311,"Approved","OW453"
"2023-05-16 19:00",20.6439608032439,"Approved","OW453"
"2023-05-16 20:00",20.6439590654567,"Approved","OW453"
"2023-05-16 21:00",20.6449573276694,"Approved","OW453"
"2023-05-16 22:00",20.6439555898822,"Approved","OW453"
"2023-05-16 23:00",20.642953852095,"Approved","OW453"
"2023-05-17 00:00",20.6429521143078,"Approved","OW453"
"2023-05-17 01:00",20.6459503765206,"Approved","OW453"
"2023-05-17 02:00",20.6479486387333,"Approved","OW453"
"2023-05-17 03:00",20.6479469009461,"Approved","OW453"
"2023-05-17 04:00",20.6479451631589,"Approved","OW453"
"2023-05-17 05:00",20.6519434253717,"Approved","OW453"
"2023-05-17 06:00",20.6479416875845,"Approved","OW453"
"2023-05-17 07:00",20.6489399497973,"Approved","OW453"
"2023-05-17 08:00",20.65293821201,"Approved","OW453"
"2023-05-17 09:00",20.6509364742228,"Approved","OW453"
"2023-05-17 10:00",20.6519347364356,"Approved","OW453"
"2023-05-17 11:00",20.6519329986484,"Approved","OW453"
"2023-05-17 12:00",20.6529312608612,"Approved","OW453"
"2023-05-17 13:00",20.652929523074,"Approved","OW453"
"2023-05-17 14:00",20.6539277852867,"Approved","OW453"
"2023-05-17 15:00",20.6529260474995,"Approved","OW453"
"2023-05-17 16:00",20.6539243097123,"Approved","OW453"
"2023-05-17 17:00",20.6529225719251,"Approved","OW453"
"2023-05-17 18:00",20.6549208341379,"Approved","OW453"
"2023-05-17 19:00",20.6539190963506,"Approved","OW453"
"2023-05-17 20:00",20.6539173585634,"Approved","OW453"
"2023-05-17 21:00",20.6539156207762,"Approved","OW453"
"2023-05-17 22:00",20.652913882989,"Approved","OW453"
"2023-05-17 23:00",20.6529121452018,"Approved","OW453"
"2023-05-18 00:00",20.6539104074146,"Approved","OW453"
"2023-05-18 01:00",20.6549086696273,"Approved","OW453"
"2023-05-18 02:00",20.6559069318401,"Approved","OW453"
"2023-05-18 03:00",20.6569051940529,"Approved","OW453"
"2023-05-18 04:00",20.6609034562657,"Approved","OW453"
"2023-05-18 05:00",20.6609017184785,"Approved","OW453"
"2023-05-18 06:00",20.6598999806913,"Approved","OW453"
"2023-05-18 07:00",20.661898242904,"Approved","OW453"
"2023-05-18 08:00",20.6618965051168,"Approved","OW453"
"2023-05-18 09:00",20.6628947673296,"Approved","OW453"
"2023-05-18 10:00",20.6628930295424,"Approved","OW453"
"2023-05-18 11:00",20.6638912917552,"Approved","OW453"
"2023-05-18 12:00",20.6648895539679,"Approved","OW453"
"2023-05-18 13:00",20.6658878161807,"Approved","OW453"
"2023-05-18 14:00",20.6658860783935,"Approved","OW453"
"2023-05-18 15:00",20.6678843406063,"Approved","OW453"
"2023-05-18 16:00",20.6688826028191,"Approved","OW453"
"2023-05-18 17:00",20.6688808650319,"Approved","OW453"
"2023-05-18 18:00",20.6698791272446,"Approved","OW453"
"2023-05-18 19:00",20.6698773894574,"Approved","OW453"
"2023-05-18 20:00",20.6698756516702,"Approved","OW453"
"2023-05-18 21:00",20.670873913883,"Approved","OW453"
"2023-05-18 22:00",20.6718721760958,"Approved","OW453"
"2023-05-18 23:00",20.6728704383086,"Approved","OW453"
"2023-05-19 00:00",20.6718687005213,"Approved","OW453"
"2023-05-19 01:00",20.6738669627341,"Approved","OW453"
"2023-05-19 02:00",20.6748652249469,"Approved","OW453"
"2023-05-19 03:00",20.6758634871597,"Approved","OW453"
"2023-05-19 04:00",20.6798617493725,"Approved","OW453"
"2023-05-19 05:00",20.6798600115852,"Approved","OW453"
"2023-05-19 06:00",20.679858273798,"Approved","OW453"
"2023-05-19 07:00",20.6798565360108,"Approved","OW453"
"2023-05-19 08:00",20.6808547982236,"Approved","OW453"
"2023-05-19 09:00",20.6798530604364,"Approved","OW453"
"2023-05-19 10:00",20.6828513226492,"Approved","OW453"
"2023-05-19 11:00",20.6828495848619,"Approved","OW453"
"2023-05-19 12:00",20.6838478470747,"Approved","OW453"
"2023-05-19 13:00",20.6858461092875,"Approved","OW453"
"2023-05-19 14:00",20.6858443715003,"Approved","OW453"
"2023-05-19 15:00",20.6858426337131,"Approved","OW453"
"2023-05-19 16:00",20.6858408959259,"Approved","OW453"
"2023-05-19 17:00",20.6868391581386,"Approved","OW453"
"2023-05-19 18:00",20.6858374203514,"Approved","OW453"
"2023-05-19 19:00",20.6858356825642,"Approved","OW453"
"2023-05-19 20:00",20.686833944777,"Approved","OW453"
"2023-05-19 21:00",20.6878322069898,"Approved","OW453"
"2023-05-19 22:00",20.6878304692025,"Approved","OW453"
"2023-05-19 23:00",20.6858287314153,"Approved","OW453"
"2023-05-20 00:00",20.6868269936281,"Approved","OW453"
"2023-05-20 01:00",20.6868252558409,"Approved","OW453"
"2023-05-20 02:00",20.6888235180537,"Approved","OW453"
"2023-05-20 03:00",20.6898217802665,"Approved","OW453"
"2023-05-20 04:00",20.6938200424792,"Approved","OW453"
"2023-05-20 05:00",20.694818304692,"Approved","OW453"
"2023-05-20 06:00",20.6928165669048,"Approved","OW453"
"2023-05-20 07:00",20.6948148291176,"Approved","OW453"
"2023-05-20 08:00",20.6958130913304,"Approved","OW453"
"2023-05-20 09:00",20.6968113535432,"Approved","OW453"
"2023-05-20 10:00",20.6978096157559,"Approved","OW453"
"2023-05-20 11:00",20.6978078779687,"Approved","OW453"
"2023-05-20 12:00",20.6988061401815,"Approved","OW453"
"2023-05-20 13:00",20.7018044023943,"Approved","OW453"
"2023-05-20 14:00",20.7018026646071,"Approved","OW453"
"2023-05-20 15:00",20.7018009268198,"Approved","OW453"
"2023-05-20 16:00",20.7017991890326,"Approved","OW453"
"2023-05-20 17:00",20.6997974512454,"Approved","OW453"
"2023-05-20 18:00",20.7017957134582,"Approved","OW453"
"2023-05-20 19:00",20.702793975671,"Approved","OW453"
"2023-05-20 20:00",20.7037922378838,"Approved","OW453"
"2023-05-20 21:00",20.7027905000965,"Approved","OW453"
"2023-05-20 22:00",20.7027887623093,"Approved","OW453"
"2023-05-20 23:00",20.7027870245221,"Approved","OW453"
"2023-05-21 00:00",20.7027852867349,"Approved","OW453"
"2023-05-21 01:00",20.7037835489477,"Approved","OW453"
"2023-05-21 02:00",20.7057818111605,"Approved","OW453"
"2023-05-21 03:00",20.7077800733732,"Approved","OW453"
"2023-05-21 04:00",20.708778335586,"Approved","OW453"
"2023-05-21 05:00",20.7107765977988,"Approved","OW453"
"2023-05-21 06:00",20.7097748600116,"Approved","OW453"
"2023-05-21 07:00",20.7117731222244,"Approved","OW453"
"2023-05-21 08:00",20.7117713844371,"Approved","OW453"
"2023-05-21 09:00",20.7117696466499,"Approved","OW453"
"2023-05-21 10:00",20.7137679088627,"Approved","OW453"
"2023-05-21 11:00",20.7147661710755,"Approved","OW453"
"2023-05-21 12:00",20.7157644332883,"Approved","OW453"
"2023-05-21 13:00",20.7167626955011,"Approved","OW453"
"2023-05-21 14:00",20.7167609577138,"Approved","OW453"
"2023-05-21 15:00",20.7177592199266,"Approved","OW453"
"2023-05-21 16:00",20.7177574821394,"Approved","OW453"
"2023-05-21 17:00",20.7187557443522,"Approved","OW453"
"2023-05-21 18:00",20.718754006565,"Approved","OW453"
"2023-05-21 19:00",20.7197522687778,"Approved","OW453"
"2023-05-21 20:00",20.7177505309905,"Approved","OW453"
"2023-05-21 21:00",20.7187487932033,"Approved","OW453"
"2023-05-21 22:00",20.7207470554161,"Approved","OW453"
"2023-05-21 23:00",20.7207453176289,"Approved","OW453"
"2023-05-22 00:00",20.7207435798417,"Approved","OW453"
"2023-05-22 01:00",20.7207418420545,"Approved","OW453"
"2023-05-22 02:00",20.7217401042672,"Approved","OW453"
"2023-05-22 03:00",20.72473836648,"Approved","OW453"
"2023-05-22 04:00",20.7247366286928,"Approved","OW453"
"2023-05-22 05:00",20.7257348909056,"Approved","OW453"
"2023-05-22 06:00",20.7277331531184,"Approved","OW453"
"2023-05-22 07:00",20.7267314153311,"Approved","OW453"
"2023-05-22 08:00",20.7277296775439,"Approved","OW453"
"2023-05-22 09:00",20.7277279397567,"Approved","OW453"
"2023-05-22 10:00",20.7287262019695,"Approved","OW453"
"2023-05-22 11:00",20.7297244641823,"Approved","OW453"
"2023-05-22 12:00",20.7287227263951,"Approved","OW453"
"2023-05-22 13:00",20.7307209886078,"Approved","OW453"
"2023-05-22 14:00",20.7307192508206,"Approved","OW453"
"2023-05-22 15:00",20.7327175130334,"Approved","OW453"
"2023-05-22 16:00",20.7337157752462,"Approved","OW453"
"2023-05-22 17:00",20.733714037459,"Approved","OW453"
"2023-05-22 18:00",20.7347122996718,"Approved","OW453"
"2023-05-22 19:00",20.7357105618845,"Approved","OW453"
"2023-05-22 20:00",20.7367088240973,"Approved","OW453"
"2023-05-22 21:00",20.7367070863101,"Approved","OW453"
"2023-05-22 22:00",20.7367053485229,"Approved","OW453"
"2023-05-22 23:00",20.7377036107357,"Approved","OW453"
"2023-05-23 00:00",20.7377018729484,"Approved","OW453"
"2023-05-23 01:00",20.7377001351612,"Approved","OW453"
"2023-05-23 02:00",20.737698397374,"Approved","OW453"
"2023-05-23 03:00",20.7396966595868,"Approved","OW453"
"2023-05-23 04:00",20.7416949217996,"Approved","OW453"
"2023-05-23 05:00",20.7416931840124,"Approved","OW453"
"2023-05-23 06:00",20.7416914462251,"Approved","OW453"
"2023-05-23 07:00",20.7436897084379,"Approved","OW453"
"2023-05-23 08:00",20.7446879706507,"Approved","OW453"
"2023-05-23 09:00",20.7426862328635,"Approved","OW453"
"2023-05-23 10:00",20.7436844950763,"Approved","OW453"
"2023-05-23 11:00",20.7446827572891,"Approved","OW453"
"2023-05-23 12:00",20.7466810195018,"Approved","OW453"
"2023-05-23 13:00",20.7456792817146,"Approved","OW453"
"2023-05-23 14:00",20.7476775439274,"Approved","OW453"
"2023-05-23 15:00",20.7476758061402,"Approved","OW453"
"2023-05-23 16:00",20.748674068353,"Approved","OW453"
"2023-05-23 17:00",20.7476723305657,"Approved","OW453"
"2023-05-23 18:00",20.7486705927785,"Approved","OW453"
"2023-05-23 19:00",20.7506688549913,"Approved","OW453"
"2023-05-23 20:00",20.7506671172041,"Approved","OW453"
"2023-05-23 21:00",20.7516653794169,"Approved","OW453"
"2023-05-23 22:00",20.7506636416297,"Approved","OW453"
"2023-05-23 23:00",20.7526619038424,"Approved","OW453"
"2023-05-24 00:00",20.7526601660552,"Approved","OW453"
"2023-05-24 01:00",20.752658428268,"Approved","OW453"
"2023-05-24 02:00",20.7536566904808,"Approved","OW453"
"2023-05-24 03:00",20.7546549526936,"Approved","OW453"
"2023-05-24 04:00",20.7556532149064,"Approved","OW453"
"2023-05-24 05:00",20.7576514771191,"Approved","OW453"
"2023-05-24 06:00",20.7556497393319,"Approved","OW453"
"2023-05-24 07:00",20.7566480015447,"Approved","OW453"
"2023-05-24 08:00",20.7586462637575,"Approved","OW453"
"2023-05-24 09:00",20.7586445259703,"Approved","OW453"
"2023-05-24 10:00",20.757642788183,"Approved","OW453"
"2023-05-24 11:00",20.7586410503958,"Approved","OW453"
"2023-05-24 12:00",20.7606393126086,"Approved","OW453"
"2023-05-24 13:00",20.7636375748214,"Approved","OW453"
"2023-05-24 14:00",20.7626358370342,"Approved","OW453"
"2023-05-24 15:00",20.763634099247,"Approved","OW453"
"2023-05-24 16:00",20.7616323614597,"Approved","OW453"
"2023-05-24 17:00",20.7646306236725,"Approved","OW453"
"2023-05-24 18:00",20.7646288858853,"Approved","OW453"
"2023-05-24 19:00",20.7636271480981,"Approved","OW453"
"2023-05-24 20:00",20.7656254103109,"Approved","OW453"
"2023-05-24 21:00",20.7656236725237,"Approved","OW453"
"2023-05-24 22:00",20.7646219347364,"Approved","OW453"
"2023-05-24 23:00",20.7646201969492,"Approved","OW453"
"2023-05-25 00:00",20.764618459162,"Approved","OW453"
"2023-05-25 01:00",20.7656167213748,"Approved","OW453"
"2023-05-25 02:00",20.7676149835876,"Approved","OW453"
"2023-05-25 03:00",20.7686132458003,"Approved","OW453"
"2023-05-25 04:00",20.7696115080131,"Approved","OW453"
"2023-05-25 05:00",20.7716097702259,"Approved","OW453"
"2023-05-25 06:00",20.7706080324387,"Approved","OW453"
"2023-05-25 07:00",20.7716062946515,"Approved","OW453"
"2023-05-25 08:00",20.7706045568643,"Approved","OW453"
"2023-05-25 09:00",20.771602819077,"Approved","OW453"
"2023-05-25 10:00",20.7736010812898,"Approved","OW453"
"2023-05-25 11:00",20.7725993435026,"Approved","OW453"
"2023-05-25 12:00",20.7745976057154,"Approved","OW453"
"2023-05-25 13:00",20.7745958679282,"Approved","OW453"
"2023-05-25 14:00",20.775594130141,"Approved","OW453"
"2023-05-25 15:00",20.7765923923537,"Approved","OW453"
"2023-05-25 16:00",20.7765906545665,"Approved","OW453"
"2023-05-25 17:00",20.7765889167793,"Approved","OW453"
"2023-05-25 18:00",20.7785871789921,"Approved","OW453"
"2023-05-25 19:00",20.7765854412049,"Approved","OW453"
"2023-05-25 20:00",20.7765837034176,"Approved","OW453"
"2023-05-25 21:00",20.7765819656304,"Approved","OW453"
"2023-05-25 22:00",20.7795802278432,"Approved","OW453"
"2023-05-25 23:00",20.777578490056,"Approved","OW453"
"2023-05-26 00:00",20.7785767522688,"Approved","OW453"
"2023-05-26 01:00",20.7795750144816,"Approved","OW453"
"2023-05-26 02:00",20.7805732766943,"Approved","OW453"
"2023-05-26 03:00",20.7835715389071,"Approved","OW453"
"2023-05-26 04:00",20.7835698011199,"Approved","OW453"
"2023-05-26 05:00",20.7865680633327,"Approved","OW453"
"2023-05-26 06:00",20.7835663255455,"Approved","OW453"
"2023-05-26 07:00",20.7865645877583,"Approved","OW453"
"2023-05-26 08:00",20.787562849971,"Approved","OW453"
"2023-05-26 09:00",20.7875611121838,"Approved","OW453"
"2023-05-26 10:00",20.7885593743966,"Approved","OW453"
"2023-05-26 11:00",20.7885576366094,"Approved","OW453"
"2023-05-26 12:00",20.7895558988222,"Approved","OW453"
"2023-05-26 13:00",20.7915541610349,"Approved","OW453"
"2023-05-26 14:00",20.7925524232477,"Approved","OW453"
"2023-05-26 15:00",20.7915506854605,"Approved","OW453"
"2023-05-26 16:00",20.7935489476733,"Approved","OW453"
"2023-05-26 17:00",20.7925472098861,"Approved","OW453"
"2023-05-26 18:00",20.7915454720989,"Approved","OW453"
"2023-05-26 19:00",20.7935437343116,"Approved","OW453"
"2023-05-26 20:00",20.7935419965244,"Approved","OW453"
"2023-05-26 21:00",20.7925402587372,"Approved","OW453"
"2023-05-26 22:00",20.79253852095,"Approved","OW453"
"2023-05-26 23:00",20.7935367831628,"Approved","OW453"
"2023-05-27 00:00",20.7945350453756,"Approved","OW453"
"2023-05-27 01:00",20.7955333075883,"Approved","OW453"
"2023-05-27 02:00",20.7975315698011,"Approved","OW453"
"2023-05-27 03:00",20.7985298320139,"Approved","OW453"
"2023-05-27 04:00",20.8005280942267,"Approved","OW453"
"2023-05-27 05:00",20.8025263564395,"Approved","OW453"
"2023-05-27 06:00",20.8025246186522,"Approved","OW453"
"2023-05-27 07:00",20.801522880865,"Approved","OW453"
"2023-05-27 08:00",20.8025211430778,"Approved","OW453"
"2023-05-27 09:00",20.8035194052906,"Approved","OW453"
"2023-05-27 10:00",20.8055176675034,"Approved","OW453"
"2023-05-27 11:00",20.8075159297162,"Approved","OW453"
"2023-05-27 12:00",20.8075141919289,"Approved","OW453"
"2023-05-27 13:00",20.8095124541417,"Approved","OW453"
"2023-05-27 14:00",20.8105107163545,"Approved","OW453"
"2023-05-27 15:00",20.8105089785673,"Approved","OW453"
"2023-05-27 16:00",20.8095072407801,"Approved","OW453"
"2023-05-27 17:00",20.8105055029929,"Approved","OW453"
"2023-05-27 18:00",20.8105037652056,"Approved","OW453"
"2023-05-27 19:00",20.8115020274184,"Approved","OW453"
"2023-05-27 20:00",20.8125002896312,"Approved","OW453"
"2023-05-27 21:00",20.812498551844,"Approved","OW453"
"2023-05-27 22:00",20.8124968140568,"Approved","OW453"
"2023-05-27 23:00",20.8124950762695,"Approved","OW453"
"2023-05-28 00:00",20.8134933384823,"Approved","OW453"
"2023-05-28 01:00",20.8144916006951,"Approved","OW453"
"2023-05-28 02:00",20.8164898629079,"Approved","OW453"
"2023-05-28 03:00",20.8184881251207,"Approved","OW453"
"2023-05-28 04:00",20.8194863873335,"Approved","OW453"
"2023-05-28 05:00",20.8204846495462,"Approved","OW453"
"2023-05-28 06:00",20.821482911759,"Approved","OW453"
"2023-05-28 07:00",20.8224811739718,"Approved","OW453"
"2023-05-28 08:00",20.8224794361846,"Approved","OW453"
"2023-05-28 09:00",20.8224776983974,"Approved","OW453"
"2023-05-28 10:00",20.8244759606102,"Approved","OW453"
"2023-05-28 11:00",20.8234742228229,"Approved","OW453"
"2023-05-28 12:00",20.8254724850357,"Approved","OW453"
"2023-05-28 13:00",20.8284707472485,"Approved","OW453"
"2023-05-28 14:00",20.8284690094613,"Approved","OW453"
"2023-05-28 15:00",20.8274672716741,"Approved","OW453"
"2023-05-28 16:00",20.8294655338869,"Approved","OW453"
"2023-05-28 17:00",20.8284637960996,"Approved","OW453"
"2023-05-28 18:00",20.8294620583124,"Approved","OW453"
"2023-05-28 19:00",20.8284603205252,"Approved","OW453"